#�ϑ�����,���ϕ���,���ϕ���,�ő啗��,�ő啗����������,�ő�u�ԕ���,�ő�u�ԕ�����������
#(�N����),(m/s)   ,(16����),(m/s)   ,(16����)        ,(m/s)       ,(16����)            
2014/1/26 0:01,1,16,1,2,1.4,14
2014/1/26 0:02,1,16,1,2,1.5,14
2014/1/26 0:03,1,16,1,2,1.4,15
2014/1/26 0:04,1,15,1,1,2.1,15
2014/1/26 0:05,1.1,15,1.1,1,1.3,14
2014/1/26 0:06,1,15,1,1,1.3,13
2014/1/26 0:07,1,14,1,15,0.6,10
2014/1/26 0:08,1,13,1,15,0.9,8
2014/1/26 0:09,0.9,13,0.9,15,1,9
2014/1/26 0:10,0.9,12,0.9,15,1.6,10
2014/1/26 0:11,0.9,12,0.9,15,1.8,10
2014/1/26 0:12,0.9,11,0.9,15,2.2,10
2014/1/26 0:13,1,11,1,15,2.9,10
2014/1/26 0:14,1,10,1,15,2.5,10
2014/1/26 0:15,1.1,10,1.1,10,3.6,10
2014/1/26 0:16,1.4,10,1.4,10,5,10
2014/1/26 0:17,1.5,10,1.5,10,3.7,10
2014/1/26 0:18,1.6,10,1.6,10,1.8,11
2014/1/26 0:19,1.6,10,1.6,10,2.9,10
2014/1/26 0:20,1.6,10,1.6,10,1.6,9
2014/1/26 0:21,1.6,10,1.6,10,1.3,8
2014/1/26 0:22,1.5,10,1.6,10,1.5,10
2014/1/26 0:23,1.3,10,1.5,10,1.9,9
2014/1/26 0:24,1.3,10,1.3,10,1.3,12
2014/1/26 0:25,1.2,10,1.3,10,2,10
2014/1/26 0:26,0.9,10,1.1,10,1.5,10
2014/1/26 0:27,0.8,11,0.9,10,0.6,13
2014/1/26 0:28,0.8,11,0.8,10,1,10
2014/1/26 0:29,0.7,11,0.8,10,0.9,13
2014/1/26 0:30,0.7,12,0.7,10,0.5,12
2014/1/26 0:31,0.6,11,0.6,10,0.8,7
2014/1/26 0:32,0.6,11,0.6,10,0.8,7
2014/1/26 0:33,0.5,11,0.6,10,0.5,9
2014/1/26 0:34,0.5,11,0.6,10,1,8
2014/1/26 0:35,0.5,10,0.5,10,1.3,8
2014/1/26 0:36,0.5,10,0.5,10,1.1,9
2014/1/26 0:37,0.5,9,0.5,11,1,8
2014/1/26 0:38,0.5,9,0.5,11,0.9,9
2014/1/26 0:39,0.5,9,0.5,11,1.3,10
2014/1/26 0:40,0.6,9,0.6,12,1.8,10
2014/1/26 0:41,0.7,9,0.7,9,2.4,9
2014/1/26 0:42,0.7,9,0.7,9,1.9,8
2014/1/26 0:43,0.8,9,0.8,9,1.9,9
2014/1/26 0:44,0.7,9,0.8,9,1.3,9
2014/1/26 0:45,0.7,9,0.7,9,1.6,9
2014/1/26 0:46,0.7,10,0.8,9,1.3,9
2014/1/26 0:47,0.7,10,0.7,9,0.9,10
2014/1/26 0:48,0.7,10,0.7,9,1.1,1
2014/1/26 0:49,0.7,9,0.7,9,0.9,5
2014/1/26 0:50,0.7,8,0.7,9,1.1,4
2014/1/26 0:51,0.6,7,0.7,9,0.8,3
2014/1/26 0:52,0.5,5,0.6,9,0.6,4
2014/1/26 0:53,0.5,4,0.5,9,0.8,16
2014/1/26 0:54,0.5,3,0.5,9,1.4,2
2014/1/26 0:55,0.5,2,0.6,9,1.4,1
2014/1/26 0:56,0.6,2,0.6,10,1.3,2
2014/1/26 0:57,0.6,2,0.6,10,0.8,1
2014/1/26 0:58,0.5,2,0.6,9,0.4,15
2014/1/26 0:59,0.5,2,0.5,9,0.6,3
2014/1/26 1:00,0.5,2,0.5,8,0.8,3
2014/1/26 1:01,0.5,1,0.5,6,0.6,2
2014/1/26 1:02,0.5,1,0.5,3,0.6,16
2014/1/26 1:03,0.5,1,0.5,3,0.5,1
2014/1/26 1:04,0.4,1,0.5,3,0.1,16
2014/1/26 1:05,0.3,1,0.4,2,0.6,16
2014/1/26 1:06,0.3,1,0.3,2,0.9,15
2014/1/26 1:07,0.3,1,0.3,2,1,16
2014/1/26 1:08,0.4,1,0.4,2,0.8,16
2014/1/26 1:09,0.4,16,0.4,2,1.1,15
2014/1/26 1:10,0.5,16,0.5,1,1.6,14
2014/1/26 1:11,0.6,16,0.6,16,1.9,14
2014/1/26 1:12,0.7,15,0.7,15,1.5,14
2014/1/26 1:13,0.7,15,0.7,15,0.9,13
2014/1/26 1:14,0.7,14,0.7,15,0.6,10
2014/1/26 1:15,0.7,14,0.7,15,0.5,11
2014/1/26 1:16,0.6,14,0.7,15,0,12
2014/1/26 1:17,0.6,14,0.6,15,0.4,16
2014/1/26 1:18,0.6,14,0.6,15,0.8,16
2014/1/26 1:19,0.5,14,0.6,15,0.9,16
2014/1/26 1:20,0.4,14,0.5,15,0.1,1
2014/1/26 1:21,0.3,14,0.4,15,0.9,4
2014/1/26 1:22,0.3,15,0.3,15,1,3
2014/1/26 1:23,0.3,16,0.3,15,0.9,1
2014/1/26 1:24,0.4,1,0.4,14,1.1,2
2014/1/26 1:25,0.5,2,0.5,14,1.4,3
2014/1/26 1:26,0.6,2,0.6,14,1.3,3
2014/1/26 1:27,0.6,2,0.6,14,0.4,16
2014/1/26 1:28,0.5,3,0.5,14,0.1,6
2014/1/26 1:29,0.5,3,0.5,2,0.1,8
2014/1/26 1:30,0.5,4,0.5,2,0.9,8
2014/1/26 1:31,0.5,3,0.5,2,0.9,15
2014/1/26 1:32,0.5,3,0.5,2,1,16
2014/1/26 1:33,0.5,3,0.5,2,1.1,15
2014/1/26 1:34,0.5,2,0.5,2,1.3,15
2014/1/26 1:35,0.5,16,0.5,2,1.3,15
2014/1/26 1:36,0.4,15,0.4,2,1,12
2014/1/26 1:37,0.5,14,0.5,2,0.9,13
2014/1/26 1:38,0.6,14,0.6,14,1,13
2014/1/26 1:39,0.7,14,0.7,14,1,13
2014/1/26 1:40,0.7,14,0.7,14,0.6,13
2014/1/26 1:41,0.7,14,0.7,14,0.5,16
2014/1/26 1:42,0.7,14,0.7,14,0.9,1
2014/1/26 1:43,0.6,14,0.7,14,0.6,1
2014/1/26 1:44,0.5,14,0.6,14,0.8,5
2014/1/26 1:45,0.5,15,0.5,14,0.8,5
2014/1/26 1:46,0.4,16,0.5,14,0.5,7
2014/1/26 1:47,0.4,2,0.4,14,0.8,7
2014/1/26 1:48,0.4,4,0.4,14,1.3,7
2014/1/26 1:49,0.4,5,0.4,14,1.8,7
2014/1/26 1:50,0.5,5,0.5,14,1.5,7
2014/1/26 1:51,0.6,6,0.6,14,1,7
2014/1/26 1:52,0.6,6,0.6,14,1,7
2014/1/26 1:53,0.6,7,0.6,14,1.1,8
2014/1/26 1:54,0.6,7,0.6,6,0.6,8
2014/1/26 1:55,0.6,7,0.6,6,0.1,8
2014/1/26 1:56,0.6,8,0.6,6,0.3,8
2014/1/26 1:57,0.6,8,0.6,6,1.1,8
2014/1/26 1:58,0.6,8,0.6,6,1,15
2014/1/26 1:59,0.5,8,0.6,6,0.4,14
2014/1/26 2:00,0.4,9,0.5,6,0.8,12
2014/1/26 2:01,0.4,10,0.4,6,1.3,12
2014/1/26 2:02,0.5,10,0.5,6,1.8,12
2014/1/26 2:03,0.6,11,0.6,7,1.8,12
2014/1/26 2:04,0.6,11,0.6,7,1.4,12
2014/1/26 2:05,0.7,12,0.7,12,0.9,11
2014/1/26 2:06,0.7,12,0.7,12,1.1,11
2014/1/26 2:07,0.8,12,0.8,12,2,13
2014/1/26 2:08,0.9,12,0.9,12,2.5,15
2014/1/26 2:09,1.1,12,1.1,12,2.1,15
2014/1/26 2:10,1.2,13,1.2,12,2.1,16
2014/1/26 2:11,1.3,13,1.3,13,1.9,16
2014/1/26 2:12,1.2,14,1.3,13,1.4,16
2014/1/26 2:13,1,14,1.2,13,0.4,16
2014/1/26 2:14,1,15,1,13,1,1
2014/1/26 2:15,1,15,1,13,1.1,1
2014/1/26 2:16,1.1,16,1.1,13,1,1
2014/1/26 2:17,1,16,1.1,13,1,3
2014/1/26 2:18,0.9,1,1,13,1,3
2014/1/26 2:19,0.8,1,0.9,13,1,3
2014/1/26 2:20,0.8,2,0.8,13,1,4
2014/1/26 2:21,0.7,2,0.8,13,0.8,3
2014/1/26 2:22,0.7,2,0.7,14,0.8,4
2014/1/26 2:23,0.7,3,0.7,15,0.6,4
2014/1/26 2:24,0.7,3,0.7,15,0.8,7
2014/1/26 2:25,0.6,4,0.7,15,0.5,7
2014/1/26 2:26,0.6,4,0.6,16,1,8
2014/1/26 2:27,0.6,5,0.6,16,0.9,10
2014/1/26 2:28,0.5,5,0.6,1,0.6,8
2014/1/26 2:29,0.4,5,0.5,1,0.1,16
2014/1/26 2:30,0.3,4,0.4,2,0.1,16
2014/1/26 2:31,0.3,5,0.3,2,1,8
2014/1/26 2:32,0.3,6,0.3,2,0.9,8
2014/1/26 2:33,0.3,6,0.3,3,0.3,7
2014/1/26 2:34,0.2,5,0.2,3,0.5,16
2014/1/26 2:35,0.2,5,0.2,4,0.8,5
2014/1/26 2:36,0.3,4,0.3,4,0.9,9
2014/1/26 2:37,0.2,4,0.3,5,0.8,12
2014/1/26 2:38,0.2,4,0.2,5,0.9,1
2014/1/26 2:39,0.4,4,0.4,5,2,1
2014/1/26 2:40,0.6,4,0.6,4,2.5,16
2014/1/26 2:41,0.6,3,0.6,4,2,1
2014/1/26 2:42,0.7,3,0.7,3,2.4,8
2014/1/26 2:43,0.8,3,0.8,3,1.6,9
2014/1/26 2:44,0.9,4,0.9,4,1.4,8
2014/1/26 2:45,0.8,5,0.8,4,1,5
2014/1/26 2:46,0.8,5,0.8,4,0.9,4
2014/1/26 2:47,0.8,4,0.8,4,1,2
2014/1/26 2:48,0.9,4,0.9,4,1.1,2
2014/1/26 2:49,0.7,4,0.9,4,0.9,4
2014/1/26 2:50,0.7,4,0.8,4,2,1
2014/1/26 2:51,0.6,5,0.7,4,1.6,16
2014/1/26 2:52,0.6,4,0.7,4,1.3,7
2014/1/26 2:53,0.6,4,0.6,4,1.1,5
2014/1/26 2:54,0.6,4,0.6,4,0.8,5
2014/1/26 2:55,0.6,4,0.6,4,1.3,11
2014/1/26 2:56,0.7,4,0.7,4,1.4,16
2014/1/26 2:57,0.8,4,0.8,4,1.8,14
2014/1/26 2:58,0.8,3,0.8,4,1.8,14
2014/1/26 2:59,0.9,1,0.9,1,2.5,14
2014/1/26 3:00,1.1,15,1.1,16,6.7,15
2014/1/26 3:01,1.3,15,1.3,15,4.4,13
2014/1/26 3:02,1.4,15,1.4,15,2.7,16
2014/1/26 3:03,1.5,15,1.5,15,5.4,16
2014/1/26 3:04,1.7,14,1.7,14,5.7,15
2014/1/26 3:05,1.9,15,1.9,15,4.2,16
2014/1/26 3:06,2.1,15,2.1,15,6,16
2014/1/26 3:07,2.6,15,2.6,15,9.4,16
2014/1/26 3:08,2.9,16,2.9,16,10,16
2014/1/26 3:09,3.1,16,3.1,16,6.5,15
2014/1/26 3:10,3.5,16,3.5,16,10,16
2014/1/26 3:11,3.7,16,3.7,16,10.3,1
2014/1/26 3:12,4,16,4,16,9.2,1
2014/1/26 3:13,4.5,16,4.5,16,9.2,1
2014/1/26 3:14,4.7,16,4.7,16,11.9,15
2014/1/26 3:15,4.8,16,4.8,16,5.4,1
2014/1/26 3:16,4.8,16,4.9,16,5.2,16
2014/1/26 3:17,4.5,16,4.8,16,5.5,15
2014/1/26 3:18,4.4,16,4.4,16,6,15
2014/1/26 3:19,4.5,16,4.5,16,7.8,15
2014/1/26 3:20,4.2,15,4.5,16,9.3,15
2014/1/26 3:21,4.1,15,4.2,16,6.5,15
2014/1/26 3:22,4.1,15,4.3,16,9.5,15
2014/1/26 3:23,4.1,15,4.1,16,10.2,1
2014/1/26 3:24,4.3,15,4.3,16,10.5,16
2014/1/26 3:25,4.5,15,4.5,16,9.2,16
2014/1/26 3:26,4.4,15,4.5,16,5.7,16
2014/1/26 3:27,4.9,15,4.9,15,13.1,16
2014/1/26 3:28,5,15,5,15,9.5,15
2014/1/26 3:29,5,15,5.1,15,10.3,1
2014/1/26 3:30,4.9,15,5.1,15,6.9,1
2014/1/26 3:31,5.3,16,5.3,16,11.3,16
2014/1/26 3:32,5.4,16,5.4,16,13.2,15
2014/1/26 3:33,5.3,16,5.5,16,9.3,16
2014/1/26 3:34,5.4,16,5.4,16,11.6,15
2014/1/26 3:35,5.4,16,5.4,16,9.9,2
2014/1/26 3:36,5.9,16,5.9,16,10.7,16
2014/1/26 3:37,5.9,16,6,16,12.8,15
2014/1/26 3:38,5.8,16,5.9,16,8.1,15
2014/1/26 3:39,5.8,16,5.8,16,8.3,16
2014/1/26 3:40,5.8,16,5.8,16,7.4,14
2014/1/26 3:41,5.7,16,5.8,16,11,16
2014/1/26 3:42,5.6,16,5.7,16,7.8,15
2014/1/26 3:43,5.6,16,5.7,16,9.3,15
2014/1/26 3:44,5.5,15,5.7,16,9.4,15
2014/1/26 3:45,5.5,15,5.6,16,8.6,14
2014/1/26 3:46,5.1,15,5.5,16,7.1,16
2014/1/26 3:47,5.1,16,5.1,16,9.8,1
2014/1/26 3:48,5.2,15,5.2,16,7.7,16
2014/1/26 3:49,5.3,15,5.3,16,9.4,14
2014/1/26 3:50,5.3,16,5.3,16,8.9,15
2014/1/26 3:51,5.4,16,5.4,16,9.7,16
2014/1/26 3:52,5.4,16,5.4,16,8.4,16
2014/1/26 3:53,5.5,16,5.5,16,9.7,16
2014/1/26 3:54,5.5,16,5.6,15,8.9,15
2014/1/26 3:55,5.5,16,5.6,16,9.1,15
2014/1/26 3:56,5.7,16,5.7,16,10.1,15
2014/1/26 3:57,5.9,15,5.9,16,11.9,16
2014/1/26 3:58,6.1,16,6.1,16,8.9,15
2014/1/26 3:59,6,16,6.2,15,8.3,15
2014/1/26 4:00,6,16,6,15,11.5,14
2014/1/26 4:01,6.2,15,6.2,15,12.3,14
2014/1/26 4:02,6.3,15,6.3,15,9.9,15
2014/1/26 4:03,6.3,15,6.4,15,12.2,16
2014/1/26 4:04,6.2,15,6.3,15,9.3,16
2014/1/26 4:05,6.3,15,6.3,15,7.2,16
2014/1/26 4:06,6.2,15,6.3,15,10.9,16
2014/1/26 4:07,6,16,6.2,15,10.5,16
2014/1/26 4:08,6.1,16,6.1,15,9.9,15
2014/1/26 4:09,6.3,16,6.3,15,12.3,15
2014/1/26 4:10,6.3,16,6.5,15,9.8,15
2014/1/26 4:11,6,16,6.3,15,8.7,16
2014/1/26 4:12,6,16,6,15,11.6,15
2014/1/26 4:13,6,16,6.1,15,11.1,15
2014/1/26 4:14,6.1,16,6.2,15,10.5,15
2014/1/26 4:15,6.4,16,6.4,15,10.1,15
2014/1/26 4:16,6.3,16,6.4,15,9.9,16
2014/1/26 4:17,6.5,16,6.5,15,14,16
2014/1/26 4:18,6.5,16,6.5,15,11.9,16
2014/1/26 4:19,6.5,16,6.6,16,10.8,16
2014/1/26 4:20,6.5,16,6.5,16,10.3,16
2014/1/26 4:21,6.7,16,6.7,16,10.8,16
2014/1/26 4:22,6.7,16,6.7,16,10.7,14
2014/1/26 4:23,6.5,16,6.7,16,11.3,15
2014/1/26 4:24,6.2,16,6.5,16,9,16
2014/1/26 4:25,6.1,16,6.2,16,9.8,16
2014/1/26 4:26,6.4,16,6.4,16,11.1,15
2014/1/26 4:27,6.3,16,6.5,16,10.1,1
2014/1/26 4:28,6.1,16,6.3,16,9.1,16
2014/1/26 4:29,6.2,16,6.2,16,11.9,16
2014/1/26 4:30,6.2,16,6.3,16,9.9,16
2014/1/26 4:31,6.2,15,6.3,16,13.1,16
2014/1/26 4:32,6.3,15,6.5,16,14,16
2014/1/26 4:33,6,15,6.2,16,9.3,15
2014/1/26 4:34,6.1,15,6.2,16,8.1,1
2014/1/26 4:35,5.9,15,6.1,16,7.7,15
2014/1/26 4:36,5.5,15,5.8,16,11.5,15
2014/1/26 4:37,5.5,16,5.5,15,9.5,16
2014/1/26 4:38,5.4,16,5.5,15,7.1,1
2014/1/26 4:39,5.4,16,5.4,15,11.3,15
2014/1/26 4:40,5.3,16,5.4,15,9.5,16
2014/1/26 4:41,5.5,16,5.5,15,11.9,16
2014/1/26 4:42,5.8,16,5.8,15,15.6,16
2014/1/26 4:43,6.2,16,6.2,15,11.6,15
2014/1/26 4:44,6.4,16,6.4,16,11.1,15
2014/1/26 4:45,6.7,16,6.8,16,11.5,16
2014/1/26 4:46,6.7,16,6.8,16,7.5,16
2014/1/26 4:47,6.6,16,6.7,16,12.8,14
2014/1/26 4:48,6.7,16,6.7,16,12.8,15
2014/1/26 4:49,6.5,16,6.8,16,9.8,15
2014/1/26 4:50,6.7,16,6.7,16,11,15
2014/1/26 4:51,6.8,16,6.8,16,12.5,15
2014/1/26 4:52,6.2,16,6.7,16,9.3,16
2014/1/26 4:53,6.1,16,6.3,16,10.5,16
2014/1/26 4:54,6,16,6.1,16,10.6,16
2014/1/26 4:55,6.1,16,6.1,16,13.5,16
2014/1/26 4:56,6.6,16,6.6,16,13.2,16
2014/1/26 4:57,6.7,16,6.7,16,13.8,16
2014/1/26 4:58,6.6,16,6.7,16,11.1,15
2014/1/26 4:59,6.7,16,6.7,16,10.3,15
2014/1/26 5:00,6.6,15,6.8,16,11.4,13
2014/1/26 5:01,6.3,15,6.6,16,10.5,15
2014/1/26 5:02,6.5,15,6.5,16,12.8,16
2014/1/26 5:03,6.8,15,6.8,16,12.3,1
2014/1/26 5:04,6.9,16,7,15,12.6,16
2014/1/26 5:05,6.9,16,7.1,16,12.3,14
2014/1/26 5:06,6.7,16,6.9,16,11.6,16
2014/1/26 5:07,6.7,16,6.9,16,12.4,16
2014/1/26 5:08,6.9,16,6.9,16,15,16
2014/1/26 5:09,7,16,7,16,9.5,1
2014/1/26 5:10,6.8,16,7,16,8.6,1
2014/1/26 5:11,6.3,16,6.7,16,4.5,14
2014/1/26 5:12,5.9,16,6.3,16,7.1,14
2014/1/26 5:13,5.8,16,5.9,16,11.6,16
2014/1/26 5:14,5.7,16,5.7,16,13.1,16
2014/1/26 5:15,5.5,16,5.8,16,8.4,16
2014/1/26 5:16,5.3,16,5.5,16,8.4,16
2014/1/26 5:17,4.8,16,5.3,16,4.2,3
2014/1/26 5:18,4.7,16,4.8,16,11,16
2014/1/26 5:19,4.8,16,4.8,16,10.8,16
2014/1/26 5:20,4.8,16,4.9,16,9.8,15
2014/1/26 5:21,5.2,16,5.2,16,7,16
2014/1/26 5:22,5.1,16,5.3,16,5.6,15
2014/1/26 5:23,4.8,16,5.2,16,5.1,14
2014/1/26 5:24,4.5,16,4.8,16,7.8,2
2014/1/26 5:25,4.6,16,4.7,16,8.9,15
2014/1/26 5:26,4.7,16,4.7,16,9,15
2014/1/26 5:27,4.9,16,4.9,16,6.8,16
2014/1/26 5:28,4.9,16,5,16,9.2,13
2014/1/26 5:29,4.6,16,4.9,16,8.1,16
2014/1/26 5:30,4.3,16,4.6,16,6.4,1
2014/1/26 5:31,4.1,16,4.3,16,4.9,15
2014/1/26 5:32,4,16,4.1,16,4.1,16
2014/1/26 5:33,4.1,16,4.1,16,6.4,15
2014/1/26 5:34,4,16,4.1,16,6.1,15
2014/1/26 5:35,3.8,15,4,16,7.8,16
2014/1/26 5:36,3.6,16,3.8,16,7.8,1
2014/1/26 5:37,3.8,16,3.8,16,12.7,16
2014/1/26 5:38,3.5,16,3.8,16,5.2,16
2014/1/26 5:39,3.4,16,3.5,16,3.9,2
2014/1/26 5:40,3.6,16,3.6,16,8.9,14
2014/1/26 5:41,3.9,16,3.9,16,10,14
2014/1/26 5:42,4.4,16,4.4,16,11.4,16
2014/1/26 5:43,4.6,16,4.6,16,9.3,14
2014/1/26 5:44,4.8,16,4.8,16,11.6,15
2014/1/26 5:45,5,16,5,16,11.1,15
2014/1/26 5:46,5.2,16,5.2,16,9.9,16
2014/1/26 5:47,5.1,16,5.3,16,9.1,16
2014/1/26 5:48,5.3,16,5.4,16,8.7,16
2014/1/26 5:49,5.8,16,5.8,16,11.6,15
2014/1/26 5:50,5.6,16,5.8,16,6.9,1
2014/1/26 5:51,5.7,16,5.7,16,10.9,15
2014/1/26 5:52,5.6,16,5.8,16,9,14
2014/1/26 5:53,5.5,16,5.6,16,7.9,16
2014/1/26 5:54,5.4,16,5.5,16,6.1,1
2014/1/26 5:55,5.2,16,5.4,16,8.5,15
2014/1/26 5:56,5.1,16,5.2,16,7.6,15
2014/1/26 5:57,4.9,16,5.1,16,7.1,16
2014/1/26 5:58,4.8,16,4.9,16,8.7,16
2014/1/26 5:59,4.4,16,4.8,16,6,16
2014/1/26 6:00,4.5,16,4.5,16,7.7,16
2014/1/26 6:01,4.3,16,4.6,16,9.2,16
2014/1/26 6:02,4.3,16,4.3,16,7,16
2014/1/26 6:03,4.3,16,4.4,16,7.6,14
2014/1/26 6:04,4.3,16,4.4,16,9.2,1
2014/1/26 6:05,4.6,16,4.6,16,12.1,16
2014/1/26 6:06,4.9,16,4.9,16,13,16
2014/1/26 6:07,5.2,16,5.2,16,12.5,1
2014/1/26 6:08,5.4,16,5.4,16,9.7,16
2014/1/26 6:09,5.6,16,5.6,16,11.6,15
2014/1/26 6:10,5.8,16,5.8,16,11.8,16
2014/1/26 6:11,5.6,16,5.8,16,7.1,15
2014/1/26 6:12,5.3,16,5.6,16,5.8,16
2014/1/26 6:13,5.2,16,5.3,16,8.7,15
2014/1/26 6:14,5.3,16,5.3,16,7.8,16
2014/1/26 6:15,4.9,16,5.2,16,6.1,15
2014/1/26 6:16,4.4,16,4.9,16,5.8,1
2014/1/26 6:17,4.1,16,4.3,16,5.1,15
2014/1/26 6:18,3.8,16,4,16,6.3,15
2014/1/26 6:19,3.8,16,3.9,16,6.2,16
2014/1/26 6:20,3.4,16,3.8,16,5.5,1
2014/1/26 6:21,3.4,16,3.4,16,5,14
2014/1/26 6:22,3.6,15,3.6,16,5.1,16
2014/1/26 6:23,3.4,15,3.6,16,4.5,15
2014/1/26 6:24,3.4,15,3.5,16,6.9,16
2014/1/26 6:25,3.4,15,3.5,16,6.8,15
2014/1/26 6:26,3.5,15,3.5,16,6.7,1
2014/1/26 6:27,3.6,15,3.6,16,4.7,16
2014/1/26 6:28,3.4,15,3.6,16,4.8,15
2014/1/26 6:29,3.4,15,3.4,16,5.8,15
2014/1/26 6:30,3.2,15,3.4,15,4.2,16
2014/1/26 6:31,3.1,15,3.2,15,2.9,16
2014/1/26 6:32,3,15,3.1,15,3.9,16
2014/1/26 6:33,2.9,15,3,15,3.8,1
2014/1/26 6:34,2.8,15,2.9,15,6,14
2014/1/26 6:35,2.7,15,2.8,15,4.4,15
2014/1/26 6:36,2.7,15,2.7,15,4.8,1
2014/1/26 6:37,2.8,15,2.8,15,6.8,16
2014/1/26 6:38,3.1,15,3.1,15,8.3,14
2014/1/26 6:39,3,16,3.1,15,5,15
2014/1/26 6:40,3.2,16,3.2,15,7,15
2014/1/26 6:41,3.5,16,3.5,16,8.3,14
2014/1/26 6:42,3.5,16,3.5,16,4.9,16
2014/1/26 6:43,3.5,16,3.5,16,4.7,16
2014/1/26 6:44,3.4,16,3.5,16,3.5,16
2014/1/26 6:45,3.3,16,3.4,16,3.7,16
2014/1/26 6:46,3.2,16,3.3,16,5,2
2014/1/26 6:47,3.1,16,3.2,16,5.2,15
2014/1/26 6:48,3,16,3.1,16,5.4,16
2014/1/26 6:49,2.9,16,3,16,5,16
2014/1/26 6:50,2.8,16,2.9,16,3.2,16
2014/1/26 6:51,2.5,16,2.7,16,1.9,16
2014/1/26 6:52,2.4,16,2.5,16,2.9,16
2014/1/26 6:53,2.3,16,2.4,16,2.2,16
2014/1/26 6:54,2.3,16,2.3,16,3.1,1
2014/1/26 6:55,2.3,16,2.3,16,4.9,1
2014/1/26 6:56,2.4,16,2.4,16,4.8,2
2014/1/26 6:57,2.3,16,2.4,16,3.5,16
2014/1/26 6:58,2.4,16,2.4,16,7.1,12
2014/1/26 6:59,2.5,16,2.5,16,5.7,14
2014/1/26 7:00,2.6,16,2.6,16,6.9,16
2014/1/26 7:01,2.6,16,2.6,16,3,16
2014/1/26 7:02,2.7,15,2.7,16,5,14
2014/1/26 7:03,2.8,15,2.8,15,4.3,14
2014/1/26 7:04,2.9,15,2.9,15,4.3,1
2014/1/26 7:05,3,15,3,15,5,16
2014/1/26 7:06,2.9,15,3,15,5.4,16
2014/1/26 7:07,3,15,3,15,4.4,15
2014/1/26 7:08,2.8,16,3,15,3.2,16
2014/1/26 7:09,2.7,16,2.8,15,5,1
2014/1/26 7:10,2.8,16,2.8,15,5.8,15
2014/1/26 7:11,2.9,16,2.9,15,4.1,16
2014/1/26 7:12,2.9,16,3,15,5.5,15
2014/1/26 7:13,3,16,3,15,4.8,15
2014/1/26 7:14,2.9,16,3,15,3.2,16
2014/1/26 7:15,2.8,16,2.9,15,3.2,14
2014/1/26 7:16,2.8,16,2.8,15,4.4,14
2014/1/26 7:17,2.8,15,2.8,15,4.4,16
2014/1/26 7:18,2.9,15,2.9,16,4.7,16
2014/1/26 7:19,2.9,15,2.9,16,5.4,16
2014/1/26 7:20,2.7,15,2.9,16,3.8,16
2014/1/26 7:21,2.8,15,2.8,16,6.2,16
2014/1/26 7:22,2.8,15,2.9,16,4.8,16
2014/1/26 7:23,2.7,15,2.8,16,3.7,15
2014/1/26 7:24,2.7,15,2.7,16,3.8,14
2014/1/26 7:25,2.9,15,2.9,15,7.4,15
2014/1/26 7:26,3.1,15,3.1,15,9.7,15
2014/1/26 7:27,3.2,15,3.2,15,5.2,16
2014/1/26 7:28,3.1,15,3.2,15,5.2,14
2014/1/26 7:29,2.9,15,3.1,15,3,16
2014/1/26 7:30,3,15,3,15,4.9,15
2014/1/26 7:31,2.8,15,3,15,3.6,1
2014/1/26 7:32,2.6,15,2.7,15,2.1,1
2014/1/26 7:33,2.5,16,2.6,15,2,15
2014/1/26 7:34,2.3,16,2.5,15,2.1,11
2014/1/26 7:35,2.1,15,2.3,15,3.6,15
2014/1/26 7:36,1.7,15,2,15,3,1
2014/1/26 7:37,1.5,15,1.7,15,2.5,16
2014/1/26 7:38,1.4,15,1.5,15,2.4,13
2014/1/26 7:39,1.4,15,1.4,15,3.6,15
2014/1/26 7:40,1.3,15,1.4,15,2.2,16
2014/1/26 7:41,1.2,15,1.3,15,1,8
2014/1/26 7:42,1.2,15,1.2,15,1.4,9
2014/1/26 7:43,1.2,13,1.2,16,1.4,9
2014/1/26 7:44,1.2,12,1.2,16,1.9,9
2014/1/26 7:45,1.2,11,1.2,15,3.5,9
2014/1/26 7:46,1.2,9,1.2,15,3.3,8
2014/1/26 7:47,1.3,9,1.3,15,2.7,9
2014/1/26 7:48,1.3,9,1.3,15,3.5,10
2014/1/26 7:49,1.3,9,1.3,15,2.1,10
2014/1/26 7:50,1.3,9,1.3,15,1.6,10
2014/1/26 7:51,1.4,9,1.4,9,3,14
2014/1/26 7:52,1.5,10,1.5,9,3.5,15
2014/1/26 7:53,1.5,10,1.5,9,2.7,16
2014/1/26 7:54,1.7,11,1.7,11,4.5,15
2014/1/26 7:55,1.8,11,1.8,11,6.1,14
2014/1/26 7:56,2,12,2,12,8.4,15
2014/1/26 7:57,2.1,13,2.1,13,7.1,16
2014/1/26 7:58,2.2,14,2.2,13,4.9,15
2014/1/26 7:59,2.4,14,2.4,14,6.8,15
2014/1/26 8:00,2.5,15,2.5,14,3.5,1
2014/1/26 8:01,2.4,15,2.5,14,0.8,15
2014/1/26 8:02,2.2,15,2.4,14,1,3
2014/1/26 8:03,2.3,15,2.3,14,4.4,15
2014/1/26 8:04,2.3,16,2.4,14,4.4,15
2014/1/26 8:05,2.1,16,2.3,14,2.5,14
2014/1/26 8:06,1.9,16,2.1,14,0.8,14
2014/1/26 8:07,1.7,16,1.9,14,1.4,6
2014/1/26 8:08,1.5,1,1.6,14,3.2,3
2014/1/26 8:09,1.3,1,1.5,14,3,3
2014/1/26 8:10,1.2,1,1.3,15,1.8,9
2014/1/26 8:11,1.4,1,1.4,15,2.7,9
2014/1/26 8:12,1.4,1,1.4,15,1.8,8
2014/1/26 8:13,1.3,12,1.4,15,2.2,9
2014/1/26 8:14,1.1,4,1.2,16,1.6,1
2014/1/26 8:15,1.1,3,1.2,16,1.6,4
2014/1/26 8:16,1.2,2,1.2,16,1.4,11
2014/1/26 8:17,1.1,16,1.2,16,1.4,15
2014/1/26 8:18,1,16,1.1,1,1.4,5
2014/1/26 8:19,1,16,1,1,1.6,6
2014/1/26 8:20,1.1,2,1.1,1,3.5,4
2014/1/26 8:21,1,2,1.1,1,3.3,13
2014/1/26 8:22,1.2,1,1.2,1,4.3,10
2014/1/26 8:23,1.2,16,1.2,4,2.1,12
2014/1/26 8:24,1.3,14,1.3,15,3,15
2014/1/26 8:25,1.4,13,1.4,14,3.1,12
2014/1/26 8:26,1.4,13,1.4,14,1.8,2
2014/1/26 8:27,1.5,14,1.5,14,2.5,1
2014/1/26 8:28,1.7,14,1.7,14,4.4,1
2014/1/26 8:29,1.9,14,1.9,14,5.8,1
2014/1/26 8:30,2.1,14,2.1,14,6.1,1
2014/1/26 8:31,2.1,15,2.1,14,4.4,16
2014/1/26 8:32,2,15,2.1,14,3.1,15
2014/1/26 8:33,2.2,16,2.2,16,4.4,2
2014/1/26 8:34,2.2,16,2.2,16,3.8,2
2014/1/26 8:35,2.3,16,2.3,16,5.5,1
2014/1/26 8:36,2.4,16,2.4,16,4.4,1
2014/1/26 8:37,2.4,1,2.5,16,3.2,1
2014/1/26 8:38,2.4,1,2.4,16,4.7,2
2014/1/26 8:39,2.2,1,2.4,16,4.8,16
2014/1/26 8:40,2.1,1,2.2,16,4.7,1
2014/1/26 8:41,2.1,1,2.1,16,3.5,14
2014/1/26 8:42,2.4,1,2.4,16,6.2,1
2014/1/26 8:43,2.4,1,2.5,16,5.4,16
2014/1/26 8:44,2.4,1,2.4,16,3.8,16
2014/1/26 8:45,2.5,16,2.5,16,4.7,16
2014/1/26 8:46,2.5,1,2.5,16,6.3,1
2014/1/26 8:47,2.7,1,2.7,1,7,1
2014/1/26 8:48,2.9,16,2.9,16,8.2,16
2014/1/26 8:49,3.4,16,3.4,16,9.3,16
2014/1/26 8:50,3.7,16,3.7,16,8.4,16
2014/1/26 8:51,3.6,16,3.7,16,5.4,15
2014/1/26 8:52,3.4,16,3.6,16,10,16
2014/1/26 8:53,3.5,16,3.6,16,7.9,16
2014/1/26 8:54,3.6,16,3.6,16,5.2,2
2014/1/26 8:55,3.7,16,3.7,16,8.6,1
2014/1/26 8:56,3.9,16,3.9,16,7.5,1
2014/1/26 8:57,4,16,4,16,7.8,16
2014/1/26 8:58,3.9,16,4,16,6.1,1
2014/1/26 8:59,3.5,16,3.9,16,4.4,2
2014/1/26 9:00,3.3,1,3.5,16,3.6,1
2014/1/26 9:01,3.3,1,3.3,16,6.1,1
2014/1/26 9:02,3.3,1,3.4,16,4.7,1
2014/1/26 9:03,3.1,1,3.3,16,3.7,2
2014/1/26 9:04,3,1,3.1,16,4.1,16
2014/1/26 9:05,2.7,1,3,16,3.1,14
2014/1/26 9:06,2.4,1,2.7,16,4.2,16
2014/1/26 9:07,2,1,2.4,16,3.5,16
2014/1/26 9:08,1.8,16,2,16,5.2,1
2014/1/26 9:09,1.7,1,1.8,16,3,1
2014/1/26 9:10,1.7,1,1.8,1,4.9,16
2014/1/26 9:11,1.9,1,1.9,1,5,3
2014/1/26 9:12,1.9,1,1.9,1,4.5,1
2014/1/26 9:13,2.1,1,2.1,1,6.4,1
2014/1/26 9:14,2.2,2,2.2,1,4.7,4
2014/1/26 9:15,2.3,2,2.3,1,4.5,4
2014/1/26 9:16,2.5,2,2.5,2,4.8,4
2014/1/26 9:17,2.6,2,2.6,2,3.9,16
2014/1/26 9:18,2.8,3,2.8,3,6.2,16
2014/1/26 9:19,2.9,2,2.9,3,4.5,1
2014/1/26 9:20,3,2,3,2,7.1,3
2014/1/26 9:21,3.1,2,3.1,2,7,15
2014/1/26 9:22,2.9,2,3.1,2,3,1
2014/1/26 9:23,2.6,2,2.8,2,2.4,2
2014/1/26 9:24,2.4,2,2.5,2,3.2,2
2014/1/26 9:25,2.4,1,2.4,2,6.7,1
2014/1/26 9:26,2.5,1,2.5,2,6.1,2
2014/1/26 9:27,2.4,1,2.5,2,3.7,3
2014/1/26 9:28,2.3,1,2.4,2,4.9,1
2014/1/26 9:29,2.3,1,2.3,2,6.4,1
2014/1/26 9:30,2.1,1,2.3,2,2.5,3
2014/1/26 9:31,1.9,1,2.1,2,4.5,16
2014/1/26 9:32,2.1,1,2.1,2,4.9,1
2014/1/26 9:33,2.1,1,2.2,2,2,1
2014/1/26 9:34,2.3,1,2.3,1,4.2,2
2014/1/26 9:35,2.1,1,2.3,1,1.8,1
2014/1/26 9:36,1.9,2,2.1,1,2.1,3
2014/1/26 9:37,1.8,2,1.9,1,1.9,1
2014/1/26 9:38,1.7,2,1.8,1,2,16
2014/1/26 9:39,1.7,2,1.7,1,5.4,2
2014/1/26 9:40,2,2,2,1,6.1,2
2014/1/26 9:41,2.1,2,2.1,1,5.5,1
2014/1/26 9:42,2.1,2,2.2,1,6.1,1
2014/1/26 9:43,2.3,2,2.3,1,6.1,3
2014/1/26 9:44,2.6,2,2.6,2,7,1
2014/1/26 9:45,2.8,2,2.8,2,6.3,2
2014/1/26 9:46,3,2,3,2,7.9,2
2014/1/26 9:47,3.4,2,3.4,2,7.8,2
2014/1/26 9:48,3.5,2,3.5,2,3.9,4
2014/1/26 9:49,3.5,2,3.6,2,4.1,3
2014/1/26 9:50,3.2,2,3.5,2,2.7,4
2014/1/26 9:51,3.1,2,3.2,2,5.4,2
2014/1/26 9:52,3,2,3.1,2,4.8,2
2014/1/26 9:53,2.9,2,3,2,5,2
2014/1/26 9:54,2.8,2,2.9,2,4.9,1
2014/1/26 9:55,2.7,2,2.8,2,3.5,16
2014/1/26 9:56,2.5,2,2.7,2,4.4,1
2014/1/26 9:57,2.2,2,2.5,2,3.7,1
2014/1/26 9:58,2.2,2,2.2,2,4.2,3
2014/1/26 9:59,2.2,2,2.2,2,5.1,5
2014/1/26 10:00,2.4,2,2.4,2,5.8,2
2014/1/26 10:01,2.5,2,2.5,2,4.5,3
2014/1/26 10:02,2.6,2,2.6,3,4.5,3
2014/1/26 10:03,2.6,2,2.7,2,3.5,3
2014/1/26 10:04,2.5,2,2.6,2,3.7,1
2014/1/26 10:05,2.5,2,2.5,2,4.7,16
2014/1/26 10:06,2.4,2,2.5,2,3.7,12
2014/1/26 10:07,2.4,1,2.4,2,2,11
2014/1/26 10:08,2.2,1,2.4,2,1,2
2014/1/26 10:09,2.1,1,2.2,2,5.1,15
2014/1/26 10:10,2.1,1,2.1,2,6,15
2014/1/26 10:11,2.2,16,2.2,2,6.5,1
2014/1/26 10:12,2,16,2.2,2,2.2,16
2014/1/26 10:13,1.9,16,2,2,7,15
2014/1/26 10:14,2.1,15,2.1,2,6.1,16
2014/1/26 10:15,2.3,16,2.3,2,7.1,15
2014/1/26 10:16,2.5,16,2.5,16,5.6,16
2014/1/26 10:17,2.6,16,2.6,16,3.6,16
2014/1/26 10:18,2.8,16,2.8,16,5.7,1
2014/1/26 10:19,3,16,3,16,5,1
2014/1/26 10:20,3,16,3.1,16,4.4,2
2014/1/26 10:21,2.8,16,3,16,3.1,1
2014/1/26 10:22,2.8,16,2.8,16,2,16
2014/1/26 10:23,2.7,16,2.8,16,2.2,15
2014/1/26 10:24,2.3,16,2.7,16,1.4,15
2014/1/26 10:25,2,16,2.3,16,1.6,16
2014/1/26 10:26,1.8,1,1.9,16,1.4,16
2014/1/26 10:27,1.8,1,1.8,16,4.7,4
2014/1/26 10:28,1.7,1,1.8,16,3.1,3
2014/1/26 10:29,1.5,2,1.7,16,4.2,2
2014/1/26 10:30,1.5,2,1.5,16,5,2
2014/1/26 10:31,1.5,2,1.5,16,5.6,3
2014/1/26 10:32,1.6,2,1.6,16,5.4,3
2014/1/26 10:33,1.8,2,1.8,16,4.3,1
2014/1/26 10:34,2,2,2,16,5.1,2
2014/1/26 10:35,2.2,2,2.2,2,4.5,3
2014/1/26 10:36,2.4,2,2.4,2,4.4,4
2014/1/26 10:37,2.4,2,2.4,2,3.1,4
2014/1/26 10:38,2.3,2,2.4,2,2.4,2
2014/1/26 10:39,2.1,2,2.3,2,1,11
2014/1/26 10:40,2,2,2.1,2,2,10
2014/1/26 10:41,2,2,2,2,2.1,10
2014/1/26 10:42,1.8,3,1.9,2,3.1,10
2014/1/26 10:43,1.7,3,1.8,2,2.1,8
2014/1/26 10:44,1.6,3,1.7,2,3.8,13
2014/1/26 10:45,1.4,3,1.5,2,2.7,4
2014/1/26 10:46,1.4,1,1.4,2,6.7,16
2014/1/26 10:47,1.7,14,1.7,2,7.8,15
2014/1/26 10:48,2.2,14,2.2,2,9.3,16
2014/1/26 10:49,2.5,14,2.5,14,5.1,14
2014/1/26 10:50,2.7,14,2.7,14,6.2,12
2014/1/26 10:51,2.6,15,2.7,14,2.2,15
2014/1/26 10:52,2.8,15,2.8,15,4.7,16
2014/1/26 10:53,3,15,3,15,4.5,16
2014/1/26 10:54,3.1,16,3.1,15,3.7,1
2014/1/26 10:55,3.1,16,3.1,15,2.1,3
2014/1/26 10:56,2.9,16,3.1,15,2.5,3
2014/1/26 10:57,2.6,16,2.9,15,1.6,1
2014/1/26 10:58,2.1,16,2.5,15,1.8,15
2014/1/26 10:59,1.9,16,2.1,15,1.3,14
2014/1/26 11:00,1.7,16,1.8,15,3.3,15
2014/1/26 11:01,1.9,16,1.9,15,4.8,15
2014/1/26 11:02,1.8,16,1.9,15,3.6,16
2014/1/26 11:03,1.8,16,1.8,15,5.6,16
2014/1/26 11:04,2.1,16,2.1,16,7.6,15
2014/1/26 11:05,2.3,15,2.3,16,5.6,16
2014/1/26 11:06,2.5,15,2.5,16,6.2,15
2014/1/26 11:07,2.9,15,2.9,15,6.9,16